Showing default

QIANFAN-87, 63173

Orbit data source: Space-Track

QIANFAN-87, 63173 is a Chinese payload satellite in LEO that was launched on Tue, 11 Mar 2025 UTC via a CHANG ZHENG 8 launch vehicle from the Wenchang Satellite Launch Center (WSC). Payload-class satellites include a variety of spacecraft equipped with specific instruments for various scientific and technological missions. These include communications satellites like Starlink; space stations such as the ISS; scientific satellites like the Hubble; Earth observation satellites from companies like Planet Labs, Umbra, and HawkEye 360; GPS; miniature CubeSats for education and research; and military/defense satellites.

Loading next visibility...
Identifier
63173, 2025-046Q
Orbit
LEO
Country
Flag of CNCN / PRC
Related business
Manufacturer
GESIH
Mission
Operational Commercial Communications
Bus & Motor
QIANFAN, Unknown motor
Mass
267 kg wet, ~267 kg dry
Launch date (UTC)
2025-03-11 (1 year ago)
Launch vehicle
CHANG ZHENG 8
Launch site
Wenchang Satellite Launch Center (WSC)
Object type
Payload
Rocket body
Debris
Shape & HBR
Box + 1 Pan, 1.5 m
Radar Cross Section
13.200 m², Large (>1 m²)

Expand to show TLE details & history
Last TLE update: 10 hours ago

TLE from 10 hours ago
0 QIANFAN-87
1 63173U 25046Q   26171.42540799  .00000133  00000-0  18812-3 0  9994
2 63173  88.9712 300.2165 0009540 302.0776  57.9449 13.51019259 73090
Epoch: 2026-06-20T10:12Z
TLE epoch observation values (Epoch: 2026-06-20T10:12:35.250Z)
Latitude
0.00006°
Longitude
-121.57059°
Altitude
1,067.698 km
Speed
7.32 km/s
True Right ascension
20h 00m 51s
True Declination
0° 00' 00"
Sunlit
Object was in full shadow at epoch
Visualization orbit readout
Latitude
Unknown
Longitude
Unknown
Altitude
Unknown
Speed
Unknown
Apparent Right ascension
Unknown
Apparent Declination
Unknown
Sunlit
N/A
Visualization observer readout
Local Sidereal Time
07:18:39
Azimuth
Unknown
Elevation
Unknown
Doppler factor
Unknown
Orbital elements
Apogee altitude
1,072.663 km
Perigee altitude
1,058.461 km
Semi-major axis
7,443.699 km
Eccentricity
0.00095
Inclination
88.9712°
RAAN
300.2165°
Arg. of periapsis
302.0776°
True anomaly
58.03761°
Mean anomaly
57.9449°
Eccentric anomaly
57.99125°
Mean motion
3.37956 °/min
Orbital period
106.52 mins
BSTAR
0.00018812
Loading maneuver chart data...
Computing Atmospheric mass density...
Loading historical data...
Loading historical data...
Loading historical data...
Loading historical data...
Loading historical data...
Loading historical data...
Loading historical data...

Documentation

Showing up to 5 results
|